Погода в Фрунзенском

Россия / Калининградская область     54°29′13″N   21°33′30″E
темп.,
°C
ветер,
м/с
пор.,
м/с
влажн.,
%
обл.,
%
осадки,
мм/ч
давл.,
гПа
погр.,
м
11 мая, вт
вт1123:00+16ююв6167998 0.0 1016490
02:00+14ююв61680100 0.0 1016472
05:00+13ююв5148471 0.0 1016366
08:00+16юв61576100 0.0 1016573
11:00+20ююв7136484 0.0 1016868
14:00+22ююв7125924 0.0 10151158
17:00+21юв712655 0.0 10141164
20:00+17юв613735 0.0 1014714
12 мая, ср
ср1223:00+15юв616655 0.0 1014623
02:00+13юв5166523 0.0 1014546
05:00+12юв516755 0.0 1014514
08:00+16юв615728 0.0 1014703
11:00+20юв712645 0.0 10131173
14:00+22юв7105915 0.0 10131491
17:00+19юв6105998 0.0 10131183
20:00+14вюв411710 0.0 1013482
13 мая, чт
чт1323:00+10вюв311830 0.0 1012286
02:00+8вюв3590100 0.0 101198
05:00+7юв22935 0.0 101042
08:00+13в1270100 0.0 1009344
11:00+11всв2395100 1.4 1007220
14:00+11всв1192100 1.6 1006184
17:00+10в1296100 0.3 1005136
20:00+10вюв2598100 1.6 1004195
14 мая, пт
пт1423:00+9в3797100 2.8 1003268
02:00+9в2698100 3.5 1002297
05:00+9в2699100 0.9 1002269
08:00+9в249895 1.7 1001212
11:00+12юв238694 0.1 1002589
14:00+16ююв347299 0.5 10021003
17:00+16ююв357819 1.3 1002886
20:00+12ююв229143 2.1 100240
15 мая, сб
сб1523:00+10ююв36965 0.0 1003106
02:00+9ю24976 0.0 100372
05:00+8юз3698100 0.0 1004127
08:00+10з469384 0.0 1005493
11:00+13з457078 0.1 10071129
14:00+15зюз3565100 0.1 10071310
17:00+16зюз236640 0.0 10071005
20:00+12ююз118853 0.5 100718